DW1521 Weather Reports


time (UTC)temp
C
wind
direction
speed
KPH
gust
KPH
rain 1hr
cm
rain 24hr
cm
rain mn
cm
humidity
%
barometer
mb
20260506132335 25 175 6.4 12.9 0.00 0.00 0.00 32 1013.1
20260506130335 27 87 1.6 9.7 0.00 0.00 0.00 29 1013.3
20260506125335 27 71 6.4 11.3 0.00 0.00 0.00 30 1013.5
20260506124335 27 27 4.8 11.3 0.00 0.00 0.00 30 1013.6
20260506123335 27 54 4.8 11.3 0.00 0.00 0.00 29 1013.5
20260506122836 27 104 4.8 11.3 0.00 0.00 0.00 29 1013.6
20260506121835 27 137 8.0 14.5 0.00 0.00 0.00 30 1013.8
20260506120835 27 89 8.0 14.5 0.00 0.00 0.00 29 1014.1
20260506114836 27 231 3.2 11.3 0.00 0.00 0.00 30 1014.5
20260506113835 27 278 1.6 4.8 0.00 0.00 0.00 30 1014.7
20260506113336 27 329 3.2 8.0 0.00 0.00 0.00 30 1014.6
20260506112836 26 265 3.2 8.0 0.00 0.00 0.00 30 1014.8
20260506111835 26 293 3.2 11.3 0.00 0.00 0.00 30 1014.9
20260506105336 26 221 4.8 9.7 0.00 0.00 0.00 31 1015.5
20260506104335 26 283 3.2 9.7 0.00 0.00 0.00 31 1015.5
20260506103835 26 311 3.2 9.7 0.00 0.00 0.00 33 1015.5
20260506101336 25 293 8.0 12.9 0.00 0.00 0.00 33 1015.7
20260506100835 25 75 3.2 9.7 0.00 0.00 0.00 34 1015.9
20260506094835 24 286 4.8 11.3 0.00 0.00 0.00 36 1016.3
20260506093336 23 220 3.2 12.9 0.00 0.00 0.00 37 1016.5
20260506091335 23 253 1.6 8.0 0.00 0.00 0.00 41 1016.5
20260506085835 22 300 3.2 11.3 0.00 0.00 0.00 42 1016.6
20260506085335 22 291 4.8 12.9 0.00 0.00 0.00 43 1016.8
20260506084335 22 212 4.8 11.3 0.00 0.00 0.00 45 1016.8
20260506082335 21 290 3.2 9.7 0.00 0.00 0.00 50 1017.0
20260506081335 20 298 1.6 8.0 0.00 0.00 0.00 52 1016.8
20260506071835 17 114 3.2 8.0 0.00 0.00 0.00 59 1017.2
20260506071336 16 159 1.6 4.8 0.00 0.00 0.00 59 1017.3
20260506070835 16 156 3.2 8.0 0.00 0.00 0.00 61 1017.3
20260506070335 16 135 3.2 4.8 0.00 0.00 0.00 61 1017.5
20260506061835 12 169 1.6 4.8 0.00 0.00 0.00 67 1017.7
20260506060335 11 147 3.2 4.8 0.00 0.00 0.00 69 1017.7
20260506043835 6 351 1.6 1.6 0.00 0.00 0.00 69 1017.0
20260506043335 6 10 0.0 0.0 0.00 0.00 0.00 69 1016.9
20260506042835 5 11 0.0 0.0 0.00 0.00 0.00 69 1016.9
20260506042335 5 21 0.0 0.0 0.00 0.00 0.00 69 1016.9
20260506040835 5 358 0.0 0.0 0.00 0.00 0.00 69 1017.0
20260506040335 5 26 0.0 1.6 0.00 0.00 0.00 69 1016.8
20260506032835 6 83 1.6 1.6 0.00 0.00 0.00 67 1016.3
20260506032335 6 71 0.0 3.2 0.00 0.00 0.00 67 1016.2
20260506031835 6 67 1.6 1.6 0.00 0.00 0.00 67 1016.2
20260506031335 6 51 0.0 1.6 0.00 0.00 0.00 67 1016.3
20260506030835 6 57 0.0 1.6 0.00 0.00 0.00 67 1016.3
20260506025336 6 51 0.0 1.6 0.00 0.00 0.00 66 1015.7
20260506024835 6 53 0.0 0.0 0.00 0.00 0.00 66 1015.8
20260506024335 6 66 0.0 1.6 0.00 0.00 0.00 67 1015.8
20260506023835 6 17 0.0 1.6 0.00 0.00 0.00 67 1015.6
20260506021835 6 13 0.0 1.6 0.00 0.00 0.00 67 1015.6
20260506020335 6 152 0.0 3.2 0.00 0.00 0.00 66 1015.5
20260506015835 6 156 0.0 3.2 0.00 0.00 0.00 66 1015.2
20260506014335 7 117 0.0 3.2 0.00 0.00 0.00 66 1015.1
20260506013335 7 107 1.6 3.2 0.00 0.00 0.00 66 1015.1
20260506012835 7 133 3.2 4.8 0.00 0.00 0.00 66 1015.1
20260506012335 7 33 0.0 3.2 0.00 0.00 0.00 66 1015.1
20260506010335 7 54 0.0 1.6 0.00 0.00 0.00 65 1015.0
20260506004335 7 130 0.0 1.6 0.00 0.00 0.00 64 1014.4
20260506003835 7 148 3.2 4.8 0.00 0.00 0.00 64 1014.5
20260506003335 7 112 3.2 3.2 0.00 0.00 0.00 64 1014.4
20260506002335 8 67 0.0 1.6 0.00 0.00 0.00 63 1014.3
20260506001835 8 68 0.0 1.6 0.00 0.00 0.00 63 1014.4
20260506001335 8 64 0.0 0.0 0.00 0.00 0.00 63 1014.2
20260506000335 8 67 0.0 1.6 0.00 0.00 0.00 62 1014.4
20260505235835 8 65 0.0 0.0 0.00 0.00 0.00 62 1013.9
20260505235335 8 67 0.0 1.6 0.00 0.00 0.00 62 1014.0
20260505233835 8 62 0.0 1.6 0.00 0.00 0.00 62 1014.0
20260505232835 9 67 1.6 1.6 0.00 0.00 0.00 61 1014.0
20260505230335 9 56 0.0 1.6 0.00 0.00 0.00 61 1014.0
20260505225335 10 58 0.0 1.6 0.00 0.00 0.00 60 1013.7
20260505224335 10 48 0.0 1.6 0.00 0.00 0.00 59 1013.7
20260505223835 10 45 0.0 0.0 0.00 0.00 0.00 59 1013.8
20260505223335 10 54 0.0 0.0 0.00 0.00 0.00 59 1013.7
20260505222835 10 67 0.0 0.0 0.00 0.00 0.00 59 1013.7
20260505220835 11 61 1.6 1.6 0.00 0.00 0.00 58 1013.6
20260505220335 11 59 1.6 1.6 0.00 0.00 0.00 58 1013.7
20260505215835 11 47 0.0 3.2 0.00 0.00 0.00 57 1013.4
20260505215335 11 56 1.6 1.6 0.00 0.00 0.00 57 1013.5
20260505214835 11 27 0.0 0.0 0.00 0.00 0.00 57 1013.3
20260505214335 11 27 0.0 0.0 0.00 0.00 0.00 57 1013.4
20260505213835 11 27 0.0 0.0 0.00 0.00 0.00 57 1013.4
20260505212835 11 14 1.6 1.6 0.00 0.00 0.00 56 1013.4
20260505212335 12 17 1.6 3.2 0.00 0.00 0.00 56 1013.4
20260505211335 12 43 0.0 1.6 0.00 0.00 0.00 56 1013.4
20260505205336 12 12 1.6 3.2 0.00 0.00 0.00 54 1013.4
20260505202835 13 24 1.6 1.6 0.00 0.00 0.00 53 1013.3
20260505202335 13 19 1.6 3.2 0.00 0.00 0.00 53 1013.3
20260505201835 14 58 1.6 1.6 0.00 0.00 0.00 51 1013.4
20260505200835 14 72 1.6 3.2 0.00 0.00 0.00 51 1013.4
20260505200335 14 71 1.6 1.6 0.00 0.00 0.00 51 1013.3
20260505195835 14 48 1.6 1.6 0.00 0.00 0.00 50 1013.1
20260505193835 15 78 0.0 0.0 0.00 0.00 0.00 49 1013.1
20260505192834 15 78 0.0 1.6 0.00 0.00 0.00 48 1013.0
20260505192335 15 78 0.0 0.0 0.00 0.00 0.00 48 1013.0
20260505191835 15 78 0.0 1.6 0.00 0.00 0.00 48 1013.2
20260505190835 16 77 1.6 4.8 0.00 0.00 0.00 48 1013.0
20260505190335 16 74 1.6 3.2 0.00 0.00 0.00 47 1012.8
20260505184835 16 87 1.6 8.0 0.00 0.00 0.00 48 1012.9
20260505184335 16 91 4.8 8.0 0.00 0.00 0.00 47 1012.9
20260505182335 17 86 1.6 11.3 0.00 0.00 0.00 46 1012.7
20260505181835 17 86 4.8 9.7 0.00 0.00 0.00 46 1012.5
20260505180835 17 104 3.2 8.0 0.00 0.00 0.00 44 1012.5
20260505180334 18 101 3.2 8.0 0.00 0.00 0.00 44 1012.4
20260505175835 18 77 3.2 9.7 0.00 0.00 0.00 43 1012.8
20260505175335 18 84 3.2 8.0 0.00 0.00 0.00 43 1012.7
20260505174335 18 91 4.8 9.7 0.00 0.00 0.00 43 1012.6
20260505173335 19 114 3.2 9.7 0.00 0.00 0.00 42 1012.5
20260505172335 20 111 3.2 8.0 0.00 0.00 0.00 41 1012.3
20260505170334 20 91 6.4 12.9 0.00 0.00 0.00 39 1012.4
20260505165834 21 88 3.2 9.7 0.00 0.00 0.00 39 1012.7
20260505164835 21 118 4.8 9.7 0.00 0.00 0.00 39 1012.6
20260505164335 21 117 4.8 9.7 0.00 0.00 0.00 38 1012.6
20260505163335 21 80 8.0 11.3 0.00 0.00 0.00 37 1012.7
20260505162835 21 115 1.6 11.3 0.00 0.00 0.00 36 1012.5
20260505162335 22 89 6.4 14.5 0.00 0.00 0.00 36 1012.6
20260505160335 22 80 8.0 12.9 0.00 0.00 0.00 35 1012.6
20260505152335 23 87 6.4 16.1 0.00 0.00 0.00 32 1013.1
20260505151335 24 319 3.2 11.3 0.00 0.00 0.00 30 1013.1
20260505150835 24 93 4.8 11.3 0.00 0.00 0.00 30 1013.1
20260505140335 25 322 3.2 14.5 0.00 0.00 0.00 28 1013.5